AFL1351 USPP-URSS

Flight info

Callsign AFL1351
Flight time N/A
Altitude 34000
Route GEKTO1L GEKTO DCT AGNOK DCT IPTEN DCT MIPMA DCT KUSIT DCT UBIRA DCT OKAMO DCT DILUP DCT IDNID DCT RUSUR DCT KORIR/K0848F360 DCT DIMEG DCT EKTEN DCT ATR DCT IPLED DCT GOTIK DCT MEMZA DCT VENFO DCT BINOL BINOL1L
Aircraft A320/M-SDE3FGHIRWY/LB1

Departure

Time 2026-05-06 12:12
Airport Perm International Airport (USPP)

Arrival

Time N/A
Airport Sochi International Airport (URSS)
Time Latitude Longitude Altitude Speed Heading
2026-05-06 11:31 57.91941 56.02137 396 ft 0 kts 316°
2026-05-06 12:01 57.91932 56.02154 394 ft 2 kts 316°
2026-05-06 12:01 57.91919 56.02177 396 ft 2 kts 316°
2026-05-06 12:01 57.91907 56.02199 393 ft 2 kts 316°
2026-05-06 12:01 57.91895 56.02223 396 ft 3 kts 294°
2026-05-06 12:02 57.91891 56.02243 396 ft 1 kts 272°
2026-05-06 12:02 57.91890 56.02244 396 ft 0 kts 271°
2026-05-06 12:04 57.91891 56.02237 396 ft 0 kts 271°
2026-05-06 12:04 57.91891 56.02234 396 ft 1 kts 271°
2026-05-06 12:05 57.91891 56.02221 395 ft 1 kts 271°
2026-05-06 12:05 57.91891 56.02210 396 ft 0 kts 271°
2026-05-06 12:05 57.91891 56.02230 396 ft 0 kts 252°
2026-05-06 12:05 57.91891 56.02227 396 ft 0 kts 252°
2026-05-06 12:06 57.91890 56.02222 395 ft 0 kts 252°
2026-05-06 12:06 57.91889 56.02218 395 ft 1 kts 252°
2026-05-06 12:06 57.91841 56.02197 394 ft 15 kts 164°
2026-05-06 12:07 57.91749 56.02342 397 ft 13 kts 139°
2026-05-06 12:07 57.91746 56.02350 394 ft 0 kts 126°
2026-05-06 12:08 57.91745 56.02351 394 ft 1 kts 127°
2026-05-06 12:08 57.91708 56.02425 397 ft 15 kts 135°
2026-05-06 12:08 57.91691 56.02611 399 ft 15 kts 46°
2026-05-06 12:08 57.91799 56.02807 397 ft 29 kts 46°
2026-05-06 12:09 57.91924 56.03066 398 ft 14 kts 49°
2026-05-06 12:09 57.92017 56.03275 401 ft 23 kts 50°
2026-05-06 12:09 57.92056 56.03328 401 ft 7 kts 275°
2026-05-06 12:09 57.92041 56.03284 400 ft 0 kts 227°
2026-05-06 12:10 57.92039 56.03280 400 ft 1 kts 227°
2026-05-06 12:10 57.92035 56.03272 399 ft 0 kts 227°
2026-05-06 12:10 57.92033 56.03266 399 ft 1 kts 227°
2026-05-06 12:10 57.92032 56.03266 399 ft 0 kts 227°
2026-05-06 12:11 57.92032 56.03265 399 ft 0 kts 227°
2026-05-06 12:11 57.92027 56.03255 400 ft 8 kts 227°
2026-05-06 12:11 57.91714 56.02641 402 ft 126 kts 226°
2026-05-06 12:11 57.90880 56.01026 465 ft 209 kts 226°
2026-05-06 12:12 57.89752 55.98822 926 ft 257 kts 226°
2026-05-06 12:12 57.88400 55.96172 1739 ft 301 kts 226°
2026-05-06 12:12 57.86870 55.93201 2858 ft 323 kts 226°
2026-05-06 12:12 57.85317 55.90317 4726 ft 306 kts 220°
2026-05-06 12:13 57.83452 55.88617 6491 ft 296 kts 190°
2026-05-06 12:13 57.81454 55.88931 8161 ft 289 kts 160°
2026-05-06 12:13 57.79705 55.90751 9570 ft 289 kts 144°
2026-05-06 12:13 57.78091 55.93077 10646 ft 302 kts 142°
2026-05-06 12:14 57.76366 55.95608 11288 ft 328 kts 142°
2026-05-06 12:14 57.74511 55.98332 11964 ft 347 kts 142°
2026-05-06 12:14 57.72493 56.00918 12916 ft 356 kts 149°
2026-05-06 12:14 57.70449 56.03074 13856 ft 361 kts 152°